Theta_e
303 303 303 303 303 302 302 302 302 303 303 303 303 302 302 302 302 302 303 303 303 303 303 303 303 304 304 304 305 305 305 305 306 306 306 306 306 306 306 305 305 304 305 305 306 306 306 306 307 307 308 307 308 308 308 308 309 309 308 307 306 305 304 301 299 299 303 306 305 305 306 304 299 297 296 295 294 294 293 294 294 293 292 292 292
302 302 302 302 301 301 301 301 302 302 302 301 301 300 300 300 300 301 301 301 301 302 301 301 302 302 302 302 303 303 303 304 304 304 303 303 303 304 303 303 302 302 303 302 303 304 304 304 304 304 305 305 306 305 305 305 305 304 304 305 305 305 306 303 301 300 299 303 303 302 297 297 297 295 294 294 293 292 292 291 291 291 291 291 291
302 302 301 301 301 301 301 301 301 301 301 300 300 299 300 300 300 299 300 300 301 301 300 300 300 300 300 301 301 302 302 302 302 302 301 301 301 301 302 301 301 300 300 301 302 302 302 302 302 302 303 302 302 302 302 300 301 300 300 300 300 301 299 301 300 298 298 299 302 301 300 295 295 295 293 293 293 292 291 290 290 290 290 290 290
301 301 301 301 301 301 300 300 300 299 299 299 299 299 299 299 299 299 299 300 299 300 300 300 300 300 300 300 300 300 300 301 301 301 301 301 300 300 300 300 300 300 300 300 300 301 301 300 301 301 300 299 298 298 299 299 298 298 299 299 299 299 300 300 299 299 298 298 300 300 300 298 293 293 292 291 291 290 290 289 290 289 288 288 288
300 300 301 300 300 299 299 299 298 298 298 298 298 298 298 298 298 298 298 298 298 299 299 299 299 299 299 298 299 299 299 299 299 299 300 300 300 300 300 300 299 299 299 299 296 299 299 299 299 298 298 296 296 296 297 296 297 297 297 297 297 298 298 298 298 298 297 296 297 299 298 296 293 290 290 289 289 288 288 287 287 287 287 287 287
299 300 300 299 298 298 298 298 297 297 297 297 297 297 297 297 297 297 297 296 297 298 297 298 297 297 297 298 298 298 298 298 298 298 299 299 299 299 299 299 299 298 298 298 298 298 298 298 297 297 296 295 295 295 296 295 296 296 296 296 297 297 296 296 296 296 296 296 296 295 297 294 292 290 288 289 288 286 285 285 285 286 286 285 286
298 298 298 298 297 297 296 296 296 296 296 296 296 296 296 296 295 295 295 295 295 295 296 296 296 296 297 297 297 297 298 298 298 298 298 298 298 298 297 297 297 297 297 297 297 297 297 297 296 296 295 295 295 294 295 295 295 295 295 295 296 295 295 295 295 294 294 294 294 295 295 295 292 291 287 288 288 287 285 283 282 285 285 285 285
297 297 298 297 296 296 296 296 296 295 296 296 296 295 295 295 295 295 294 294 294 294 294 294 295 295 296 296 296 297 296 296 297 298 297 296 295 295 295 295 295 296 296 296 296 296 296 296 295 295 295 295 295 295 295 294 294 294 295 295 295 294 294 294 294 294 293 293 293 293 294 294 290 287 286 285 284 284 285 285 284 283 283 285 285
296 296 296 295 295 295 295 295 295 295 295 294 294 294 294 293 293 293 293 294 294 294 294 294 294 294 294 295 295 295 296 296 297 296 294 293 293 293 294 294 294 294 294 295 295 295 295 295 295 296 295 291 291 292 292 293 294 293 293 294 293 293 293 293 293 293 292 292 292 293 292 292 292 286 283 283 283 285 285 285 284 284 283 284 285
295 295 294 294 294 294 294 294 294 294 293 293 292 292 292 292 292 292 292 293 293 293 293 293 293 293 293 293 294 295 295 296 294 292 292 292 292 292 292 292 293 293 293 293 293 294 294 294 294 291 290 289 289 290 291 291 291 292 293 293 292 291 291 291 291 291 291 291 291 291 291 291 292 289 287 286 286 286 284 284 283 283 283 283 284
294 293 293 293 293 293 293 292 292 292 292 292 291 291 291 291 291 291 291 291 291 292 292 292 292 292 292 292 292 294 295 295 292 293 293 293 292 291 291 291 291 292 292 292 292 292 293 294 294 292 291 290 291 290 291 291 291 291 291 291 291 291 290 289 290 290 290 290 291 291 290 290 291 290 288 287 286 285 285 284 283 282 281 280 279
293 293 292 292 292 291 291 291 291 291 291 290 290 290 290 289 290 290 290 290 290 290 290 291 291 291 292 292 292 292 292 291 293 293 292 292 291 290 290 290 291 291 292 292 292 292 292 292 293 293 293 293 293 293 292 291 291 291 291 291 291 292 292 290 289 289 289 289 289 290 290 290 291 291 289 287 286 285 284 284 283 282 281 281 281
293 292 291 291 291 291 290 290 290 290 290 289 289 289 287 288 288 287 287 289 289 289 290 289 290 290 291 290 290 290 291 291 292 292 292 291 291 290 290 290 290 290 291 291 291 291 291 291 291 292 293 289 290 292 292 292 291 291 291 291 291 291 292 293 292 290 290 289 289 289 290 290 290 290 289 287 287 285 284 282 283 282 282 282 281
291 291 291 290 290 289 289 289 288 288 288 288 288 288 287 287 287 288 287 288 288 288 288 288 288 289 289 288 289 289 289 290 291 291 291 291 291 291 290 289 289 290 290 291 291 291 291 291 290 290 291 292 292 292 292 292 292 292 291 291 291 291 291 291 290 290 289 290 289 288 290 290 290 291 289 288 286 285 284 282 283 282 282 282 283
290 289 289 289 288 288 288 287 287 287 287 287 286 286 286 286 286 286 287 287 286 286 287 286 287 287 287 287 288 287 289 290 290 290 290 291 291 290 289 289 289 289 290 290 291 291 291 291 290 290 290 291 291 291 291 291 291 290 289 289 289 290 290 290 290 290 290 290 289 289 290 290 290 290 290 288 287 287 286 285 284 283 283 282 281
289 288 288 288 288 287 287 286 286 286 286 285 285 285 285 285 285 286 286 286 286 286 286 286 286 286 286 286 287 287 287 289 289 290 290 290 290 288 288 288 288 288 289 289 290 290 290 290 290 290 290 290 290 291 291 290 289 288 287 287 288 288 289 289 291 291 290 290 290 290 290 290 291 290 290 288 287 286 285 285 284 282 280 279 277
287 287 287 287 287 286 286 285 285 284 284 284 284 284 284 284 285 286 285 285 285 285 285 285 286 286 286 286 286 286 286 287 289 289 289 289 289 287 286 286 286 287 287 288 289 290 290 290 290 289 289 289 290 291 291 290 288 287 287 287 287 287 287 288 290 291 291 291 291 292 292 293 293 293 293 293 288 286 284 282 281 281 279 277 277
286 286 286 286 285 286 285 284 283 283 283 282 282 282 283 283 284 285 284 284 284 284 285 285 286 286 285 285 285 285 285 286 287 288 289 289 288 286 286 286 286 286 287 288 289 289 289 287 287 289 288 288 289 290 291 289 287 287 286 286 286 286 287 288 288 288 290 290 290 290 290 291 291 292 292 292 290 287 284 281 281 281 279 278 276
284 284 284 285 285 284 284 283 282 281 280 281 281 280 281 282 283 284 284 283 283 284 285 285 284 285 285 285 285 285 285 285 287 288 289 289 288 286 286 285 285 285 286 286 287 288 288 288 287 288 288 288 290 291 291 289 287 287 287 286 285 285 286 287 287 287 287 287 286 286 286 287 288 288 288 290 289 286 285 284 283 281 279 278 278
283 283 283 283 283 282 281 281 280 279 279 279 280 280 281 282 282 282 282 282 283 284 284 284 283 283 284 284 285 285 285 285 286 288 288 289 289 287 286 285 284 284 285 285 285 286 287 287 288 289 290 291 291 291 291 291 289 288 287 286 285 285 287 287 287 287 286 286 286 286 286 286 286 286 286 286 286 285 285 285 284 282 281 279 278
282 281 281 281 280 280 279 279 278 278 279 278 279 279 280 280 281 281 281 282 282 282 281 282 282 283 284 284 284 285 285 285 286 287 288 289 289 288 286 285 285 285 285 285 285 285 285 286 287 288 290 290 290 290 290 290 290 288 287 286 286 287 288 287 287 286 286 286 285 285 285 285 285 285 285 285 285 285 285 284 284 284 282 280 278
280 279 279 278 278 278 278 278 278 277 278 278 278 278 279 280 280 280 281 281 280 280 281 282 282 283 283 284 284 285 286 286 286 286 288 288 289 289 286 285 286 285 284 284 285 285 285 286 286 287 288 288 289 289 289 290 289 288 287 289 289 289 287 287 287 287 286 285 285 284 284 282 280 278 278 278 279 280 280 280 280 279 281 281 280
278 278 277 277 277 277 277 277 276 277 277 278 277 277 278 279 279 280 280 280 280 280 280 281 281 282 282 284 284 285 285 286 286 286 287 288 288 289 289 287 288 286 285 284 284 284 285 285 286 286 287 287 288 288 288 288 288 287 288 288 288 289 288 287 286 285 284 284 283 281 279 278 277 276 275 274 274 275 276 275 275 274 274 274 275
277 276 276 276 276 276 276 276 276 276 277 277 277 277 277 278 279 280 280 280 280 280 281 281 281 281 281 282 283 284 285 285 286 286 286 287 288 289 288 288 289 286 285 285 285 285 285 285 285 286 287 287 287 287 288 287 286 287 288 288 288 287 286 285 285 284 283 282 280 278 276 276 274 273 273 272 272 272 272 272 272 272 271 270 271
275 274 274 274 274 274 274 275 275 276 276 276 276 277 277 277 277 279 279 279 279 279 280 280 280 281 281 281 282 283 284 284 285 285 285 286 287 288 288 288 288 288 286 285 285 285 285 286 286 286 286 287 287 287 287 286 287 287 287 287 286 285 285 285 284 283 281 280 278 276 273 272 270 269 269 269 270 270 270 269 269 269 268 268 267
273 273 273 273 273 273 273 274 275 275 275 276 276 276 276 276 277 277 278 278 279 279 279 279 280 279 280 280 281 281 282 283 283 284 285 285 286 287 287 287 286 286 285 285 285 286 286 286 286 286 286 286 285 285 284 285 285 286 286 285 285 284 284 284 283 282 280 278 276 272 269 268 268 269 271 272 271 270 270 270 270 270 270 269 268
272 272 272 272 272 273 272 273 273 274 274 275 275 275 276 276 276 276 277 277 278 278 278 278 278 278 279 279 280 280 280 281 282 282 284 284 285 285 285 285 285 285 285 285 285 285 285 285 285 286 285 285 285 285 285 285 284 284 285 285 285 285 284 283 282 281 279 275 271 269 269 269 270 271 272 272 271 271 272 271 270 269 269 269 267
271 271 271 271 272 272 272 273 273 273 273 273 273 274 275 275 275 275 276 276 276 276 276 276 277 277 277 278 278 279 279 280 281 281 282 283 284 284 284 284 284 284 284 285 285 285 285 285 285 285 285 285 284 284 284 284 285 284 284 285 285 284 283 281 279 276 275 273 270 270 270 271 271 271 271 271 271 271 271 271 270 269 269 268 266
270 270 271 271 271 272 272 271 271 271 272 272 273 274 274 274 274 275 276 277 277 276 276 276 277 278 278 278 277 277 278 278 280 283 283 284 283 283 283 283 284 284 285 286 285 285 285 284 283 283 283 283 283 282 283 283 283 284 284 283 282 281 280 279 276 273 271 270 270 270 270 270 270 270 270 269 270 270 271 270 270 269 269 268 266
269 270 270 271 271 271 270 270 270 271 271 271 271 272 275 276 276 275 275 277 279 280 280 277 277 278 277 278 279 278 277 279 282 283 283 284 284 285 285 285 286 286 286 286 285 284 283 282 282 282 282 282 281 281 281 282 282 282 281 282 281 280 279 276 274 272 272 271 271 271 270 270 269 269 269 268 268 269 271 271 270 269 267 266 265
269 269 270 269 270 269 269 269 270 270 270 270 270 271 271 273 276 277 277 277 278 278 279 280 280 281 279 278 279 281 282 282 283 283 283 284 284 284 285 285 286 286 286 285 283 283 282 281 282 282 282 282 281 281 281 281 281 281 280 280 279 278 276 274 273 273 272 272 271 271 270 270 269 269 269 268 268 269 269 269 269 268 266 266 264
267 268 267 267 267 268 268 268 268 269 269 270 270 270 269 269 270 274 276 276 276 277 278 278 279 279 280 280 279 279 281 282 283 283 283 283 283 284 285 285 285 285 286 286 282 282 282 281 281 281 282 281 281 281 281 281 280 280 279 278 277 276 275 273 273 273 273 272 271 270 270 269 269 269 268 268 268 268 268 268 268 267 266 265 264
264 264 264 265 267 267 267 267 267 268 268 268 268 268 268 268 267 268 270 274 275 275 276 277 278 279 279 280 280 281 281 282 282 283 282 283 283 283 284 284 285 285 285 283 281 281 281 281 281 282 281 281 281 281 280 280 280 279 279 277 275 274 274 274 274 273 273 272 271 270 270 269 269 269 268 268 268 267 267 267 267 266 265 264 263
262 263 264 264 264 265 266 266 266 267 267 267 267 267 267 267 267 267 267 268 269 272 274 276 276 277 278 279 279 279 280 280 281 281 282 282 283 283 283 283 285 285 284 281 281 281 281 281 281 281 281 281 280 280 279 279 279 279 277 275 273 273 273 274 274 273 273 272 271 271 270 269 269 268 267 268 268 267 266 266 266 265 264 263 263
261 263 264 264 264 264 265 265 265 265 266 266 266 266 266 266 267 267 267 267 267 268 268 270 273 275 274 275 277 278 279 280 281 281 281 281 282 282 283 281 280 280 281 282 282 281 281 281 281 280 280 280 280 279 278 278 278 277 274 272 272 273 273 273 273 273 272 272 271 271 270 269 268 268 268 267 266 266 265 265 265 265 264 263 263
261 262 263 263 263 264 264 264 265 264 264 264 265 265 265 266 266 266 267 267 267 267 268 269 270 272 274 275 276 277 278 279 279 279 279 280 280 281 278 278 279 279 280 281 281 281 281 281 280 280 280 279 279 278 278 277 277 275 273 273 272 272 272 272 272 272 272 272 271 271 270 269 269 269 268 268 267 266 265 265 265 264 264 263 262
261 261 262 263 263 263 263 263 263 264 265 265 265 265 265 266 266 266 266 266 266 267 267 267 268 268 270 272 273 275 277 277 277 277 278 279 281 280 279 280 279 280 280 280 280 280 279 279 279 279 279 278 278 277 277 275 274 273 273 273 273 272 272 272 272 272 271 271 270 270 269 269 269 269 269 268 266 265 265 265 264 263 263 262 262
260 261 261 262 262 262 262 263 263 264 264 264 265 265 264 264 265 265 265 265 265 265 265 265 267 266 266 268 272 272 272 274 275 275 276 277 277 277 278 279 279 279 279 280 280 280 279 279 278 278 278 278 277 276 274 273 273 273 272 272 272 272 272 272 271 271 270 270 269 269 268 268 268 269 269 267 266 265 264 263 263 262 262 262 262
261 262 262 262 263 262 262 263 263 263 263 264 264 264 264 264 264 264 264 264 264 264 265 265 265 266 267 268 269 270 271 270 270 270 272 273 275 277 277 278 278 279 279 279 279 277 277 277 277 276 276 276 274 274 273 272 272 272 272 272 271 271 270 270 270 270 269 269 269 269 269 268 268 269 269 267 265 264 263 263 262 262 261 261 262
261 261 262 262 262 263 263 263 263 263 263 263 263 263 263 263 263 263 263 264 263 264 264 265 265 266 267 268 268 269 268 269 270 271 271 273 274 276 277 277 277 278 278 278 277 276 276 276 275 275 275 274 273 273 272 272 271 271 271 271 270 270 270 270 270 269 269 268 268 268 268 268 268 268 268 267 265 263 263 262 262 262 262 262 262
260 261 261 262 262 262 262 263 263 263 263 263 263 263 263 263 264 264 264 264 264 264 264 265 265 266 267 268 270 271 269 269 270 271 272 273 274 275 276 277 277 277 277 277 276 275 275 274 273 273 273 273 272 272 271 271 271 271 271 270 270 269 269 269 268 268 268 267 267 267 267 267 267 268 266 264 264 263 263 263 263 263 262 262 262
260 260 261 262 262 262 262 262 263 263 263 263 263 263 263 263 264 264 264 264 264 264 264 264 265 266 267 269 269 270 269 269 270 271 272 273 274 275 275 275 276 275 274 274 274 273 273 272 271 271 270 270 270 270 270 270 270 270 270 270 269 269 268 267 268 268 267 267 266 266 266 266 267 267 265 264 263 263 263 263 263 262 262 261 261
260 260 261 262 262 262 262 262 263 262 262 263 263 263 263 263 263 263 263 263 263 263 263 263 264 265 266 268 268 269 268 269 270 271 272 273 273 272 273 272 270 268 268 268 269 270 271 270 269 268 268 268 268 268 269 269 270 270 270 269 269 268 268 267 266 266 266 266 265 265 265 266 266 265 263 262 263 263 262 262 262 261 261 261 260
260 261 262 262 262 262 262 262 262 262 262 263 263 263 263 263 263 263 262 262 262 263 263 263 263 264 264 266 267 267 268 269 269 269 269 269 269 269 268 267 266 265 265 265 265 267 268 268 266 266 265 265 265 266 267 268 269 269 269 269 268 267 267 266 266 265 265 265 264 264 265 264 264 263 262 262 262 262 261 261 261 261 260 260 260
260 261 261 261 261 261 261 262 262 262 262 262 262 262 262 262 262 262 262 262 262 262 262 263 263 263 263 264 265 265 266 266 266 266 266 266 266 265 264 264 263 262 262 263 264 265 265 265 265 264 264 264 265 265 265 266 267 268 268 268 268 266 266 266 266 265 265 264 264 264 264 264 263 262 262 262 262 262 261 261 261 260 260 260 260
260 260 260 260 260 261 261 261 262 261 261 261 261 261 261 262 261 261 262 262 262 262 262 262 262 262 262 263 263 264 264 264 264 264 264 263 263 262 263 262 262 261 262 262 263 263 263 263 263 263 263 263 263 263 264 264 265 265 266 266 266 266 265 265 265 265 264 264 264 264 263 263 262 262 261 262 262 262 261 261 261 260 260 260 260
259 259 260 260 260 260 261 261 261 261 260 261 261 261 261 261 261 261 262 261 261 261 261 261 261 261 261 262 262 262 262 262 262 262 262 262 261 261 261 261 261 261 261 261 261 262 262 262 262 261 261 261 262 262 262 262 262 262 263 264 265 264 264 264 264 264 263 264 264 264 263 263 262 261 261 262 261 261 260 260 260 259 259 259 259
259 260 260 260 260 260 260 260 260 261 260 260 260 260 260 261 261 261 260 261 260 260 260 260 260 260 261 261 261 261 261 261 261 261 261 261 261 261 261 261 260 260 260 260 259 260 260 260 260 260 260 260 260 260 260 260 260 260 260 261 262 263 263 262 263 264 264 264 264 264 263 262 262 261 261 261 261 260 260 259 259 259 258 258 258
259 259 259 260 260 260 260 260 260 259 259 259 259 259 260 260 260 260 260 260 260 260 260 260 260 260 260 260 260 260 261 261 260 260 260 260 260 261 260 260 260 259 259 258 258 258 259 259 259 259 259 259 259 259 259 259 260 260 260 260 261 262 261 262 262 263 262 264 263 263 263 262 261 261 261 261 260 260 260 259 259 258 257 257 257
258 258 259 259 259 259 260 260 259 259 259 259 259 259 259 259 259 259 259 259 259 259 259 259 259 259 259 259 260 260 260 260 260 260 260 260 260 260 260 260 259 259 259 259 259 259 259 259 259 259 259 259 259 260 261 261 261 261 261 261 262 261 261 261 261 261 262 263 263 263 262 261 261 260 260 260 260 259 258 258 257 257 256 256 255
258 258 258 258 259 259 259 258 258 258 258 258 258 258 258 258 258 258 258 258 258 258 259 259 259 259 259 259 260 259 259 260 260 260 260 260 260 260 260 259 259 259 259 259 259 259 259 259 259 259 259 259 260 261 262 262 261 261 261 261 261 260 260 260 260 260 261 261 262 262 261 260 260 259 259 259 259 258 257 257 256 256 255 255 255
Wind_Speed
7 7 6 7 7 7 6 6 6 5 5 5 5 5 4 5 5 4 4 4 5 5 5 6 6 6 6 6 6 6 6 6 5 5 5 6 6 7 7 8 9 10 9 10 9 9 10 10 11 11 11 11 10 9 10 10 10 9 9 8 9 7 7 10 14 18 20 13 9 12 9 7 6 6 7 6 5 6 6 5 5 5 6 6 7
6 6 6 6 7 6 6 5 4 4 5 5 5 5 5 4 5 4 4 4 4 4 5 5 5 6 6 6 6 6 6 6 6 5 6 6 7 5 6 9 9 10 9 10 10 8 9 11 12 12 10 11 11 11 10 10 9 9 10 9 11 12 11 13 15 16 22 18 10 5 5 4 9 4 7 8 7 5 6 5 4 5 7 6 6
5 5 6 6 6 5 4 4 4 4 5 5 6 6 5 5 4 5 4 4 4 4 5 5 5 5 5 5 6 6 6 6 5 6 6 7 7 7 7 8 9 9 10 11 10 9 10 10 12 11 9 10 10 10 10 10 9 10 12 9 10 11 7 8 10 14 17 18 13 9 8 4 8 7 6 7 6 5 7 7 7 5 5 6 6
4 5 6 6 6 6 5 5 6 7 7 6 7 6 5 4 4 5 5 4 5 4 4 5 5 5 5 6 6 6 6 6 6 5 7 7 7 8 8 7 7 9 10 10 10 9 10 11 11 10 9 10 10 9 9 9 10 10 12 11 11 13 11 11 12 14 15 19 20 13 9 10 7 7 3 3 5 6 6 5 3 6 4 4 5
4 4 5 7 7 7 7 6 6 7 6 5 6 5 5 5 5 5 5 6 6 5 5 5 5 5 5 6 7 6 6 6 7 7 7 6 7 7 8 8 8 9 9 10 10 10 11 11 11 9 9 10 12 10 8 10 10 10 11 10 10 11 11 11 12 12 14 17 18 14 10 8 5 2 4 5 4 4 2 4 4 4 3 3 4
4 5 5 6 6 7 6 5 6 6 6 5 5 5 4 5 5 5 5 6 6 5 6 5 5 6 6 6 6 6 6 6 7 7 7 7 7 8 8 8 8 8 9 10 10 9 10 11 11 10 10 11 12 11 10 11 11 11 12 11 11 10 12 12 11 12 14 15 16 16 13 10 8 7 5 7 6 5 3 2 1 2 4 5 5
5 4 4 5 5 6 5 5 5 5 5 4 4 4 4 4 4 5 5 5 5 5 5 5 4 5 6 5 6 6 6 6 6 7 7 7 7 8 8 9 9 9 8 9 9 10 11 11 11 11 11 11 12 12 11 11 11 12 12 12 12 12 12 12 11 12 13 14 14 14 14 11 8 9 3 6 6 5 6 3 5 5 5 6 5
4 4 3 4 5 5 5 4 4 4 4 4 4 4 4 4 4 4 3 4 3 4 5 6 5 5 5 5 6 6 6 6 6 6 6 7 7 8 8 9 10 10 9 9 9 10 10 11 11 11 12 11 11 11 11 11 10 12 11 10 11 12 12 11 11 11 12 12 13 14 11 13 5 0 3 3 3 3 5 8 10 6 6 6 7
3 3 3 4 4 4 4 3 3 4 4 3 4 4 4 3 3 3 3 4 4 4 5 5 6 6 5 5 5 5 5 5 4 4 6 8 8 9 9 9 9 10 11 10 9 10 10 10 11 11 11 13 16 16 16 15 13 14 14 10 10 11 12 10 10 11 11 12 13 11 12 12 10 5 6 7 9 11 7 7 7 4 5 5 4
2 2 3 3 4 4 4 4 3 3 4 4 5 5 4 5 5 4 5 4 4 5 5 5 6 6 6 6 5 5 5 5 6 8 7 7 9 8 9 9 9 10 10 11 10 9 10 11 11 14 16 17 17 18 19 19 20 17 15 13 12 11 12 12 11 10 10 12 12 12 13 13 12 8 9 10 6 3 4 7 7 5 5 5 4
2 2 3 3 4 4 4 4 3 4 4 4 4 4 5 5 5 6 5 5 5 5 5 6 5 6 6 6 6 6 6 5 9 9 10 11 9 9 9 9 9 9 9 10 12 12 10 10 10 11 12 13 14 17 17 19 20 21 23 22 19 16 14 14 14 11 11 12 12 12 12 14 13 8 9 7 6 9 9 8 9 7 9 10 9
2 2 3 3 4 4 4 4 4 3 4 4 5 4 5 5 4 5 6 5 5 6 6 6 6 6 6 6 7 6 6 8 12 11 11 12 11 9 9 9 9 9 9 10 10 10 12 11 10 9 9 11 12 12 15 18 19 21 22 22 21 22 21 17 15 13 12 12 13 14 13 13 13 9 7 5 7 7 9 9 10 11 8 9 10
2 2 3 3 4 3 3 4 3 3 4 4 4 4 3 4 3 4 5 6 7 6 7 7 7 7 7 8 8 8 8 9 12 13 13 13 13 12 9 9 10 11 10 11 11 12 11 11 12 9 8 12 12 12 12 14 16 20 21 22 22 22 21 23 22 17 13 14 15 16 14 12 11 11 7 7 8 10 8 8 9 10 12 10 9
2 2 3 4 4 4 3 4 4 4 4 5 5 6 4 5 5 6 4 5 6 7 6 9 8 7 8 9 10 9 9 10 13 14 14 14 13 12 10 11 11 12 12 11 11 12 11 11 12 12 11 10 10 12 12 13 13 13 12 11 11 14 17 19 20 22 19 16 15 16 15 11 13 12 8 7 9 11 10 11 10 8 11 11 7
3 3 3 3 4 3 4 4 4 5 5 4 3 4 4 4 5 4 4 4 5 7 8 8 9 7 9 8 9 10 9 12 14 15 14 13 14 13 10 10 11 12 12 11 12 12 12 11 11 12 13 12 9 11 12 13 13 13 12 13 13 12 12 11 10 11 12 12 13 14 16 14 13 12 11 7 12 12 13 14 14 12 7 7 7
3 3 2 3 3 3 3 4 5 5 5 4 4 4 4 4 6 6 4 5 5 6 6 6 8 9 8 8 10 13 12 13 14 15 15 13 16 11 9 10 11 12 13 12 12 11 11 11 11 12 13 13 13 15 14 13 13 15 16 14 14 12 12 11 14 16 14 13 12 13 12 13 14 12 10 8 8 5 4 5 6 8 9 8 10
3 2 2 3 3 3 3 3 4 3 4 4 5 5 6 7 5 4 6 6 6 7 8 8 8 8 10 8 9 12 13 14 13 16 17 16 12 9 9 9 11 12 12 12 11 12 12 11 11 12 13 13 14 16 17 16 13 16 15 16 14 13 12 10 13 18 19 20 22 23 23 24 23 24 22 21 12 9 8 8 10 10 10 8 7
2 2 2 2 3 2 3 3 3 3 4 5 5 5 5 5 4 4 6 8 9 8 8 9 9 7 8 10 10 11 14 17 17 15 16 16 12 10 9 9 11 11 11 12 10 10 13 17 14 12 13 14 17 18 18 15 12 14 14 15 17 16 13 9 8 10 15 18 20 21 20 21 21 22 24 17 18 14 12 14 13 12 11 11 9
2 3 2 3 2 3 3 2 3 3 4 4 5 7 7 6 5 5 6 7 8 7 7 9 11 11 9 9 13 13 12 16 19 17 16 16 12 7 9 9 10 11 10 12 11 11 11 12 16 15 14 16 21 20 20 15 12 12 13 13 15 17 15 12 12 12 10 9 9 10 11 13 13 12 11 17 20 17 13 12 12 13 12 11 11
2 2 3 3 3 3 3 4 5 6 7 7 7 6 6 6 7 7 8 6 7 8 8 8 12 13 12 10 11 12 13 14 16 20 17 17 16 9 7 10 10 11 11 11 12 11 12 12 12 16 17 18 19 20 19 17 13 11 11 12 13 15 13 12 12 11 11 11 10 8 10 8 7 7 5 8 11 14 11 8 11 12 11 12 12
3 3 4 4 4 5 6 6 7 6 6 6 6 6 6 7 8 7 9 7 7 9 10 10 11 13 12 11 11 11 11 13 15 19 18 17 17 14 8 10 10 10 11 12 11 12 12 12 11 14 17 17 17 19 19 19 17 13 12 12 13 15 16 14 14 15 12 11 9 8 7 6 6 5 5 6 7 7 6 5 8 8 10 11 10
4 5 5 6 6 7 7 7 7 6 6 6 7 7 5 6 6 7 6 7 9 11 10 9 10 12 12 13 11 12 12 15 14 15 17 17 16 16 10 10 11 10 11 12 13 12 11 12 11 14 18 19 20 19 21 21 21 14 14 18 24 24 16 13 12 10 9 7 6 4 3 1 2 3 4 5 5 6 6 6 6 6 4 3 9
6 5 6 6 7 7 7 8 8 6 6 6 7 9 7 7 8 7 7 8 9 11 11 10 10 12 12 11 11 11 11 12 16 14 15 16 17 16 17 14 17 11 11 13 13 13 12 13 13 17 18 19 21 25 26 29 22 16 23 25 26 24 18 11 10 9 5 4 3 3 1 2 4 4 4 5 5 7 8 8 11 14 12 12 11
5 6 6 7 7 7 7 7 7 6 6 7 7 7 8 8 8 6 6 7 8 9 8 9 9 11 13 14 13 12 11 11 13 16 14 15 17 18 17 18 18 12 11 12 12 12 13 13 14 20 24 25 27 28 28 27 19 24 25 26 24 19 13 11 9 8 5 3 3 3 2 3 4 5 4 4 6 8 9 9 10 11 13 12 13
6 6 7 7 6 6 6 7 7 5 5 6 7 7 7 7 8 7 6 6 7 8 9 8 9 10 11 13 14 13 12 12 12 14 16 15 16 18 18 18 17 17 13 11 12 12 15 23 25 25 24 24 26 26 22 21 23 23 25 23 18 11 10 10 8 5 5 4 4 4 4 3 3 4 5 6 8 9 11 10 11 13 14 16 14
6 6 6 5 5 6 6 6 4 4 6 5 5 6 7 8 7 7 6 6 6 8 8 9 9 10 11 12 13 13 14 14 14 13 12 12 11 14 16 15 15 15 16 16 20 23 23 22 23 22 19 17 14 12 13 14 18 20 21 20 12 10 10 8 6 7 6 4 5 5 3 4 4 5 6 6 8 8 10 11 11 9 11 13 14
5 5 5 5 5 4 5 4 5 5 4 4 5 5 5 6 7 8 6 7 8 8 8 9 10 9 10 12 13 14 14 14 14 13 10 10 9 10 11 13 17 18 14 12 12 12 15 15 13 17 19 24 23 19 18 18 15 13 10 10 9 9 8 7 8 7 5 6 5 5 4 4 5 5 6 6 8 6 7 11 11 9 10 10 13
4 4 5 5 4 4 5 7 7 6 5 5 6 6 5 6 6 8 7 6 8 9 8 10 10 10 11 13 14 14 15 14 13 13 12 12 12 12 13 14 14 12 13 12 11 13 14 15 16 13 12 12 10 8 8 9 10 10 9 8 7 5 2 5 7 6 6 6 6 6 6 4 5 5 5 6 6 6 5 9 12 10 10 11 12
4 4 4 4 4 4 4 4 5 7 7 7 6 6 7 7 9 10 10 7 8 9 10 12 12 11 11 13 14 15 15 17 16 14 18 24 21 18 16 15 15 14 15 19 18 16 14 13 12 12 11 11 10 9 9 9 9 9 9 6 2 2 2 3 5 6 7 9 10 8 7 6 6 5 6 7 6 6 5 8 9 12 7 9 12
4 3 3 3 3 4 4 5 5 5 6 7 9 10 10 13 12 11 13 13 16 19 18 15 14 12 14 15 13 15 16 17 26 34 34 33 33 33 29 29 28 23 25 30 23 17 15 14 13 11 11 9 9 9 9 9 8 7 4 3 2 2 3 4 5 6 6 8 8 8 8 7 7 6 6 8 6 5 4 7 7 8 11 11 11
3 3 3 3 4 5 5 5 5 6 6 7 7 9 12 10 12 18 20 23 24 24 23 26 28 26 20 18 19 27 31 32 32 31 32 32 33 34 34 30 30 29 29 20 15 14 13 12 13 12 11 10 9 9 8 8 7 7 4 2 1 2 4 5 5 6 7 6 6 7 6 7 8 7 8 8 8 7 6 5 7 6 6 9 9
3 3 3 4 5 5 4 5 6 6 6 6 7 8 9 13 15 11 12 15 19 23 25 25 25 24 26 25 21 18 24 28 30 30 33 35 34 32 32 33 31 30 28 27 16 14 13 12 12 12 10 9 8 7 7 7 7 6 4 3 2 2 4 5 6 7 7 6 7 6 7 7 7 7 7 7 8 7 7 7 6 8 8 6 7
3 4 4 4 4 5 5 5 5 6 6 7 7 7 8 10 12 16 16 13 16 19 23 24 25 24 24 23 25 24 25 29 33 32 32 32 31 30 32 34 33 30 28 18 13 14 12 12 11 10 8 7 7 7 7 7 6 5 3 2 2 2 3 5 7 5 6 7 6 7 7 7 7 7 7 7 7 8 6 7 6 8 8 8 8
4 4 3 4 4 4 4 4 5 5 5 6 7 8 9 9 11 12 15 18 19 16 12 12 15 20 23 25 26 26 26 28 29 31 31 30 30 30 29 24 29 31 24 16 14 13 12 11 11 9 7 6 6 6 6 6 5 3 1 3 3 3 5 6 6 7 5 6 7 7 7 7 7 8 7 6 5 6 8 7 9 11 8 8 9
3 5 7 5 3 4 4 5 5 6 6 7 7 8 9 10 11 11 12 14 15 17 18 16 15 18 18 21 24 29 29 27 27 27 29 30 30 31 30 20 16 13 12 9 10 11 11 10 8 6 6 7 7 6 6 5 4 3 3 3 4 4 5 5 5 5 6 7 7 6 6 7 7 7 8 9 8 7 7 9 7 9 10 9 9
3 2 2 3 3 4 4 4 5 6 7 7 8 9 10 10 11 11 12 13 14 15 17 15 15 20 26 24 25 27 28 27 26 28 29 31 30 30 17 13 13 12 11 10 10 11 9 8 7 6 5 6 5 4 4 3 1 2 2 4 5 5 5 5 5 6 5 6 6 8 8 7 7 7 6 5 8 8 8 8 8 7 9 9 8
2 2 2 2 3 4 4 5 6 7 8 9 9 9 9 9 10 11 12 12 14 14 15 16 17 17 17 15 18 23 27 29 29 28 28 26 26 18 12 12 11 12 11 11 11 9 7 6 5 5 5 5 3 3 1 1 2 3 3 3 4 5 4 5 6 5 7 6 6 7 7 7 7 7 8 8 7 6 7 7 8 8 7 9 9
3 2 2 3 4 5 5 5 6 9 8 7 8 8 9 9 10 11 12 13 14 14 15 16 16 15 16 16 20 17 19 25 28 22 18 17 14 12 12 12 12 12 12 12 11 7 6 5 3 4 3 2 2 1 1 1 2 3 3 4 4 3 6 6 6 6 6 6 7 6 7 7 6 6 5 7 8 8 8 7 9 9 8 8 7
2 5 6 7 6 5 4 5 6 6 7 7 7 8 9 10 10 10 11 11 12 13 13 14 14 15 15 15 16 18 21 17 16 17 16 13 13 12 11 12 12 12 12 12 8 5 5 5 3 2 2 1 0 0 1 2 2 3 4 4 4 5 6 5 6 6 6 6 6 6 6 6 6 5 5 6 7 9 9 9 9 9 9 8 6
2 2 3 5 4 4 5 5 6 6 7 6 7 7 8 9 9 11 11 11 12 13 13 14 15 14 14 15 15 16 18 19 17 17 16 15 14 12 12 12 12 12 12 11 7 5 5 4 2 1 1 0 0 1 1 2 2 3 3 4 5 5 5 5 6 6 6 6 6 6 6 7 6 5 5 6 8 10 10 10 9 8 7 7 7
1 2 4 4 5 4 5 5 5 5 5 6 7 8 8 9 10 11 11 12 13 14 14 14 14 14 14 18 27 28 18 17 17 16 15 15 14 13 12 11 11 12 11 9 7 4 3 2 1 1 1 1 1 1 1 1 2 3 3 3 4 4 5 4 4 5 6 6 6 6 6 6 7 7 7 6 7 8 7 7 7 6 6 7 8
2 2 3 3 3 2 3 5 5 5 5 6 7 7 8 9 10 10 11 12 12 13 14 14 14 14 17 29 27 29 20 14 15 15 15 14 13 12 12 12 10 9 8 7 6 5 3 1 1 2 2 2 2 2 1 1 1 2 3 3 4 4 5 5 5 5 5 6 6 6 6 6 6 6 7 7 8 8 8 7 7 7 7 7 7
3 3 3 3 2 3 4 4 4 4 5 5 6 8 9 9 9 9 10 11 11 12 13 14 15 15 16 22 24 26 16 13 14 14 13 13 14 14 13 10 9 8 7 7 6 6 5 2 2 3 3 3 3 3 2 2 1 1 1 2 4 5 5 5 5 5 5 6 6 6 7 6 6 6 7 6 8 8 7 8 7 7 7 7 7
2 3 3 3 3 3 4 3 3 4 4 7 8 9 8 8 8 8 9 10 10 11 11 12 13 15 15 16 17 15 13 13 13 14 14 14 13 12 9 8 7 7 6 6 6 6 6 4 2 3 3 3 3 4 3 3 2 1 1 3 3 4 5 5 6 6 7 7 7 7 7 6 6 6 7 7 8 8 8 7 8 7 7 7 7
2 2 2 2 2 3 3 3 3 4 7 7 6 6 7 6 7 7 8 9 10 11 11 11 12 13 14 14 14 14 14 13 14 13 13 13 11 10 8 7 7 7 6 6 6 7 6 5 3 4 4 4 4 4 4 3 3 3 2 1 2 4 4 5 5 5 6 8 8 7 7 7 7 6 7 7 7 8 8 8 8 8 8 7 7
1 1 2 2 3 4 4 3 5 4 5 5 6 6 6 6 6 7 8 9 9 9 10 10 10 11 12 13 13 14 14 14 13 12 11 10 9 9 8 8 7 7 6 6 6 6 6 5 5 5 5 5 5 4 4 4 4 4 4 4 3 3 3 3 4 6 6 6 7 7 7 7 6 6 7 7 6 6 7 7 7 7 7 8 7
2 2 2 3 2 4 5 5 4 4 5 6 6 6 7 6 7 8 9 9 9 9 9 9 10 10 11 11 12 13 13 13 13 12 12 11 10 9 9 8 8 7 7 7 7 6 6 6 6 6 6 5 5 6 5 5 5 5 5 4 4 4 3 3 4 4 4 5 6 8 8 8 8 7 7 7 6 7 7 7 7 8 7 7 7
1 1 2 3 3 3 4 4 5 6 5 5 5 7 7 7 7 7 7 7 8 8 9 9 9 9 10 10 10 11 11 11 11 10 10 10 10 10 10 10 9 8 7 7 7 7 6 6 6 6 6 6 6 6 6 6 5 5 5 5 5 4 5 6 4 5 5 5 5 7 8 8 7 7 7 7 7 8 8 7 6 6 6 7 6
1 1 2 2 3 4 4 4 5 4 4 4 5 7 7 6 6 6 6 7 7 8 7 8 8 8 8 9 9 10 10 10 10 10 10 9 9 10 10 10 10 8 7 7 7 7 7 7 7 6 6 6 7 6 6 6 7 7 7 6 7 10 9 9 6 6 6 5 5 5 6 7 8 7 7 7 7 6 6 6 7 7 6 6 7
1 2 2 3 4 4 4 4 4 4 5 5 5 5 6 7 7 6 6 6 6 6 7 7 8 8 8 8 10 9 9 9 9 9 9 9 9 9 9 9 10 9 9 8 8 8 7 7 7 6 6 6 6 6 6 6 6 6 5 5 10 11 11 10 9 8 6 4 5 5 6 7 7 7 6 6 6 7 7 7 6 6 6 7 6
2 2 3 3 3 4 4 4 4 4 4 4 5 5 6 6 6 6 6 6 6 6 7 7 7 7 7 8 8 8 9 8 8 8 8 8 9 9 8 8 8 8 8 8 8 7 7 7 6 6 6 7 6 6 6 6 6 6 8 10 10 10 9 7 5 7 8 6 5 6 7 8 8 7 6 6 6 6 6 7 7 6 6 6 6
Wind_Direction
66 63 62 59 56 54 49 45 48 49 51 44 45 37 31 21 15 352 336 349 346 341 339 344 338 335 330 325 323 319 317 314 312 307 299 294 293 292 295 293 287 285 285 285 282 281 282 280 278 277 277 275 273 274 273 274 270 264 261 256 257 244 234 245 255 267 276 266 256 269 266 263 254 209 236 245 244 237 226 231 229 228 232 234 238
71 73 70 67 63 60 55 49 45 47 58 52 44 39 29 23 5 349 351 350 346 339 345 342 340 334 328 323 318 317 313 313 314 311 304 302 295 295 291 290 289 286 287 285 284 283 281 278 279 278 278 276 276 274 271 272 268 267 263 257 256 255 235 240 247 257 269 281 262 247 280 175 259 165 212 231 242 235 237 234 227 220 228 232 232
80 88 86 82 76 70 62 50 40 50 55 48 36 28 18 11 5 350 352 340 344 350 342 341 335 330 322 320 318 313 312 309 307 300 294 289 289 287 286 288 287 288 286 285 286 286 282 277 278 280 279 276 273 273 276 273 273 269 268 262 262 263 256 246 261 264 271 276 279 272 270 239 226 239 212 221 237 223 236 231 225 227 227 226 229
76 91 93 87 81 72 60 47 42 38 43 39 30 23 11 6 357 353 353 348 349 346 340 337 333 326 325 320 321 318 314 311 302 295 291 288 287 286 285 283 281 286 288 287 289 287 285 285 281 283 283 279 278 276 273 270 267 267 266 263 260 263 260 253 246 260 269 279 278 274 268 272 245 238 220 194 213 223 228 244 228 228 225 218 221
52 64 80 80 67 61 51 43 40 38 38 32 25 16 10 4 1 353 354 349 348 345 342 342 334 332 328 327 323 320 315 312 310 304 300 295 291 289 289 288 285 281 282 285 286 285 283 279 282 283 282 279 279 276 273 272 269 265 266 266 261 261 260 252 253 251 260 265 275 275 267 251 264 193 183 200 217 212 202 215 224 233 221 218 226
38 43 50 66 68 62 56 45 39 36 31 29 18 14 6 5 357 356 355 345 341 343 343 337 338 326 322 320 314 310 312 308 303 300 297 299 296 292 288 285 285 286 286 285 283 280 281 280 281 281 277 275 276 279 276 272 272 267 266 267 263 262 262 259 253 253 253 261 266 277 271 259 255 235 189 195 208 208 195 212 232 218 206 221 220
49 47 50 65 70 64 56 46 37 31 25 14 6 4 4 356 352 350 342 330 332 330 328 322 318 314 307 309 305 305 305 304 301 300 302 302 302 297 294 290 284 283 277 277 279 278 275 277 279 277 274 272 275 277 279 275 270 270 267 266 266 262 261 261 257 254 255 260 264 263 271 265 248 257 186 195 215 208 207 184 228 212 213 207 213
52 47 53 62 64 61 55 39 33 23 11 6 4 2 352 351 345 329 322 317 320 316 316 317 307 301 300 296 299 299 296 296 294 300 309 309 305 296 290 289 287 284 280 276 274 274 272 272 272 270 269 270 270 274 273 276 277 274 269 264 266 264 261 263 261 256 258 258 260 267 260 269 253 108 91 156 196 231 203 206 230 209 197 205 200
58 61 61 61 58 55 54 40 27 17 15 5 5 359 353 346 334 322 320 313 308 305 300 301 300 294 287 285 286 285 284 283 288 303 310 305 300 297 293 287 285 285 284 282 276 274 275 273 271 271 268 268 267 268 268 268 276 279 275 270 265 267 268 263 262 260 258 259 263 261 265 261 254 207 191 194 202 219 209 197 232 199 186 186 205
68 83 75 60 52 52 50 40 24 14 18 8 360 353 342 341 330 320 313 306 303 300 297 288 283 282 289 288 283 281 276 276 271 275 282 291 298 293 290 285 284 283 284 285 281 273 271 273 271 268 268 268 268 266 266 265 260 258 268 274 270 266 267 268 263 260 259 260 259 262 261 260 256 231 229 228 216 205 161 194 206 192 171 194 176
106 70 64 53 47 42 43 27 10 15 7 357 351 338 335 328 316 313 311 304 297 297 288 286 288 292 291 288 285 279 274 274 277 279 286 289 291 293 291 290 283 278 277 279 283 285 277 271 273 274 271 267 266 264 263 263 264 263 261 259 259 259 267 267 265 261 260 258 264 260 257 262 258 241 229 228 195 202 205 195 201 178 177 171 185
88 78 56 47 41 33 29 12 6 0 359 347 331 324 307 302 297 303 301 298 304 294 290 295 297 293 287 284 284 287 285 277 279 284 289 292 289 288 290 287 282 280 277 276 279 283 284 283 277 274 272 271 272 273 272 268 266 265 263 262 260 257 253 253 263 267 260 262 261 258 259 255 264 252 238 204 209 203 209 199 200 189 182 195 179
118 88 67 54 43 33 22 8 359 350 342 332 315 315 313 313 315 322 318 312 304 305 307 305 300 299 298 300 298 291 287 287 289 290 292 291 287 288 285 281 281 278 277 276 278 281 283 285 288 281 276 272 272 271 271 274 269 265 262 264 263 261 260 258 254 252 260 260 262 264 257 262 261 258 226 213 199 211 197 196 204 198 201 198 186
92 64 57 46 32 25 12 357 354 347 338 327 323 323 324 322 326 315 309 314 314 312 308 304 301 305 306 300 295 295 289 294 293 294 294 293 288 289 284 283 278 275 274 273 274 277 276 282 287 289 287 280 276 277 277 275 278 277 274 268 265 261 258 255 257 257 253 252 256 262 265 260 257 261 247 203 200 209 197 208 199 194 200 200 171
65 48 42 39 21 9 5 354 350 340 335 334 325 313 314 313 321 313 309 310 309 311 309 312 305 301 301 299 295 294 288 290 295 295 294 289 291 292 286 283 280 277 275 271 270 270 274 275 275 279 285 285 278 275 280 283 285 283 279 277 271 269 266 263 258 256 255 253 253 256 262 261 262 263 263 222 214 212 201 202 193 193 163 99 102
77 42 39 28 12 356 353 338 335 329 323 317 308 310 310 312 319 314 307 303 298 291 294 290 297 300 298 300 299 297 298 297 294 294 294 289 294 292 284 282 281 280 278 275 272 271 271 271 274 276 278 279 277 275 275 280 285 286 284 280 277 272 266 258 254 256 255 256 256 256 259 260 260 262 261 240 213 194 108 95 115 133 139 149 154
58 39 31 20 354 344 340 330 321 316 318 319 329 327 326 322 308 308 308 298 291 298 301 300 297 298 302 302 299 297 298 297 293 290 290 283 283 281 281 279 278 278 277 277 274 273 270 267 267 270 274 275 275 274 276 280 282 283 283 282 280 278 275 271 255 254 256 255 256 256 260 265 266 268 267 252 211 164 151 152 164 154 151 158 157
44 24 19 5 356 352 350 345 332 333 341 335 321 314 310 298 301 316 310 314 312 306 299 301 305 299 300 306 303 300 297 298 296 290 288 288 271 277 279 280 280 281 281 277 277 274 273 269 262 265 271 275 277 276 274 272 275 277 281 283 284 285 282 278 270 259 252 253 257 260 262 265 265 265 265 233 188 164 172 182 172 164 176 170 155
27 14 3 1 4 9 360 358 354 348 333 328 330 323 321 314 309 313 313 307 301 300 307 309 310 307 304 301 301 299 297 300 302 304 299 294 288 271 276 275 281 283 288 288 287 284 279 277 273 267 265 271 277 280 279 274 272 275 279 282 281 283 285 289 282 280 274 267 258 262 264 262 260 253 240 209 189 183 190 182 163 174 172 165 158
4 1 360 5 15 10 8 8 5 355 340 333 331 320 312 312 323 324 317 308 306 312 315 311 308 304 305 307 304 300 298 297 298 300 299 294 290 280 269 279 277 284 288 289 291 289 285 284 277 275 275 273 277 281 283 279 274 274 278 281 283 280 290 287 279 277 275 268 267 260 262 261 251 236 216 209 198 189 187 175 175 172 171 162 166
11 12 6 10 14 13 9 5 351 343 337 324 314 314 315 319 318 319 314 308 310 308 307 306 302 300 300 301 298 293 288 288 291 293 295 292 288 285 271 266 274 280 287 288 288 289 290 286 288 282 283 285 287 288 287 284 280 276 273 273 269 277 285 284 283 276 268 266 264 258 255 239 222 221 203 197 187 183 170 163 172 177 166 161 159
16 12 14 14 11 4 359 352 347 332 325 319 318 309 308 307 307 311 305 304 306 304 303 304 299 297 299 297 295 291 289 286 289 291 291 289 285 278 269 263 265 277 281 282 285 283 283 287 289 290 292 292 291 287 284 284 283 282 273 271 277 280 281 281 283 278 264 254 247 230 223 153 68 53 55 57 59 73 70 81 86 75 76 134 163
14 14 12 9 6 356 352 347 333 326 319 317 318 313 312 315 314 308 297 300 303 301 301 300 300 298 299 298 297 297 298 297 291 292 291 289 288 283 275 272 275 265 271 278 280 285 287 288 288 291 295 298 299 296 293 290 288 278 278 280 281 282 283 282 280 269 233 222 211 195 130 113 106 88 88 73 59 77 78 82 85 77 70 65 58
15 14 12 5 357 351 340 330 324 319 319 321 317 312 314 316 311 304 304 301 294 300 296 302 300 298 302 303 302 300 299 296 292 291 293 291 287 288 285 283 278 266 266 272 278 281 286 286 289 294 296 295 294 294 295 292 286 283 283 283 283 282 279 278 267 245 218 192 178 147 105 84 93 101 89 71 87 86 83 80 77 80 83 70 61
15 13 6 357 345 334 326 322 316 311 324 321 314 313 313 318 311 305 305 297 294 292 294 299 300 299 301 298 300 302 302 299 297 296 295 295 289 289 286 284 283 279 277 273 274 276 276 281 284 285 286 286 290 294 295 290 285 284 283 281 279 274 271 265 248 205 200 189 156 118 90 68 73 75 96 101 100 94 89 78 81 86 87 82 73
13 6 354 339 328 320 318 311 308 320 312 308 305 302 304 306 300 299 295 289 287 290 294 300 297 298 293 294 295 299 301 300 298 297 302 298 294 288 286 288 288 289 286 284 279 278 278 278 280 284 288 290 292 292 291 288 286 282 279 276 272 268 262 250 217 208 189 155 135 125 113 106 99 116 129 126 111 111 114 111 107 99 100 98 85
14 358 343 325 318 311 312 315 321 317 312 308 300 290 286 289 292 291 291 294 296 293 293 292 292 291 291 294 296 298 298 297 297 298 303 302 303 302 304 304 300 296 290 284 283 283 284 285 286 287 286 286 284 279 277 280 280 277 272 267 262 258 247 222 213 196 159 132 122 107 108 103 125 134 130 123 114 120 124 121 113 116 108 105 102
5 339 327 318 315 313 312 319 319 315 308 299 294 295 287 284 282 282 289 296 298 295 291 287 285 290 296 296 296 297 295 293 291 297 300 301 304 303 300 295 293 292 290 288 285 286 285 285 284 281 280 279 278 276 278 280 277 278 274 270 266 249 179 93 77 73 83 103 109 109 113 132 125 109 103 100 104 108 115 118 121 120 124 120 101
347 325 322 319 312 318 321 317 314 309 306 301 290 284 295 293 286 282 270 262 257 268 281 281 281 285 285 287 291 292 292 291 290 296 296 297 297 298 297 295 294 290 287 290 293 290 287 286 282 284 281 278 276 279 284 283 280 275 277 272 234 188 145 154 133 126 128 130 139 139 140 127 114 107 104 99 97 103 110 107 114 120 117 97 110
333 333 321 315 313 323 319 312 304 303 304 306 304 295 268 264 269 276 288 277 262 266 273 274 280 289 288 280 275 280 282 283 292 296 297 299 298 296 294 292 291 291 294 296 296 292 288 286 283 281 281 274 270 278 284 284 285 284 271 253 233 170 122 112 126 133 128 138 141 140 141 134 123 127 120 115 108 102 107 118 118 121 117 116 111
338 323 319 317 321 315 308 306 309 305 298 297 299 303 309 298 272 269 272 281 285 281 277 278 281 280 278 283 282 279 281 283 286 290 293 296 297 298 298 297 295 294 295 297 291 283 283 278 281 280 275 271 270 277 281 283 280 274 255 203 203 133 121 128 140 135 134 128 126 134 136 139 136 134 128 126 127 121 99 86 104 92 82 109 107
323 309 307 305 303 302 300 298 297 298 302 305 305 308 308 308 306 284 260 265 283 289 289 287 283 279 278 278 281 287 287 288 290 292 294 294 295 296 297 298 297 296 295 295 288 282 279 276 278 276 270 263 269 277 279 280 276 259 228 197 157 130 149 141 146 141 142 135 137 131 137 137 130 126 123 123 120 119 117 114 101 103 97 69 91
296 288 287 288 298 303 301 301 303 302 304 307 309 304 303 305 304 312 311 294 281 277 282 285 290 292 291 288 284 283 287 292 294 296 296 296 297 297 295 295 294 294 295 289 277 278 273 272 270 270 263 262 271 274 275 272 267 255 222 183 141 121 115 127 137 121 129 148 135 136 135 128 122 116 114 119 124 123 123 117 105 108 110 105 108
274 271 283 304 303 300 302 302 303 302 299 301 299 300 297 296 298 300 305 313 318 312 287 277 290 297 299 300 299 297 294 292 294 295 297 299 298 298 297 295 293 293 290 283 279 274 276 272 268 263 262 265 268 267 268 260 252 239 115 98 92 97 119 130 142 143 132 134 136 130 128 131 130 129 125 115 107 118 123 124 123 121 112 116 122
271 275 281 287 296 297 301 300 299 299 303 301 301 301 297 297 298 295 296 301 305 305 311 312 310 310 309 306 302 301 300 300 301 303 304 303 303 301 300 296 293 292 287 270 268 268 268 267 265 261 261 268 266 258 258 250 239 204 146 131 126 128 136 148 144 138 136 139 138 141 138 134 134 130 134 138 142 139 126 125 124 125 124 124 124
273 281 290 296 292 288 293 295 299 300 300 299 299 295 296 296 295 295 295 295 293 298 301 303 307 310 309 306 305 306 307 308 309 309 307 305 302 301 295 288 289 288 286 282 277 271 265 263 264 269 268 266 265 256 253 231 225 113 142 147 146 149 145 140 141 138 136 131 132 135 135 135 138 134 124 132 141 137 133 132 126 123 122 122 124
278 280 291 300 302 293 293 291 288 292 295 296 294 291 291 290 292 295 299 298 298 298 297 302 309 310 312 308 309 310 309 309 311 309 307 307 308 307 296 292 289 291 289 287 281 269 262 258 261 269 267 268 258 247 222 153 122 131 141 147 148 149 149 145 145 145 143 135 133 139 144 143 143 147 148 142 131 124 120 115 115 115 118 116 118
255 263 274 283 289 287 288 287 295 297 294 288 288 293 296 298 299 299 299 299 301 302 303 304 305 305 310 312 317 316 313 311 311 311 310 310 308 303 300 294 293 293 296 294 282 261 261 266 254 260 271 264 250 199 139 139 149 142 143 142 135 125 138 137 129 125 126 127 136 138 136 140 140 144 134 131 140 138 124 123 124 120 115 117 128
239 258 267 281 283 282 285 293 296 295 290 289 296 300 301 302 301 298 297 298 297 296 297 299 302 304 306 311 313 313 314 313 316 313 312 308 303 300 299 300 298 295 295 293 286 279 268 272 268 274 274 297 263 166 154 156 145 145 140 138 132 135 139 136 141 137 132 135 135 137 137 138 140 138 130 128 133 131 123 122 126 133 137 141 138
269 273 276 294 287 287 294 292 290 287 289 300 305 305 302 300 300 301 302 302 301 301 301 302 303 304 306 309 310 314 313 310 310 308 307 307 305 304 301 298 297 296 297 295 283 270 274 277 297 299 294 315 240 159 162 150 151 142 144 149 149 151 149 150 150 146 143 142 140 135 134 139 141 131 124 128 137 133 136 138 138 138 137 133 128
273 280 287 287 280 292 288 287 283 288 300 305 301 300 297 298 299 302 304 303 304 304 304 304 304 304 305 307 309 310 308 306 307 305 302 302 302 302 303 303 302 301 302 299 293 291 294 313 339 343 16 13 39 62 108 154 140 156 157 145 134 139 142 134 136 137 141 138 137 136 135 139 146 146 135 127 134 135 129 131 132 132 128 125 127
275 281 284 278 293 289 289 284 284 294 297 294 297 297 299 300 302 303 305 306 306 307 306 305 306 307 308 310 311 312 310 300 299 298 298 297 303 312 314 313 316 322 324 323 321 311 307 341 17 19 17 25 18 24 37 65 144 145 148 142 143 145 147 146 141 128 129 134 130 133 135 138 141 125 123 134 141 139 135 136 136 130 129 131 131
254 263 266 289 290 285 282 285 296 299 305 302 297 298 295 296 299 302 304 305 305 306 309 311 310 311 311 313 315 315 309 301 297 298 305 316 319 317 317 324 325 320 319 321 325 330 326 354 42 35 30 17 20 14 14 24 8 43 93 129 144 146 141 134 130 129 125 122 120 120 126 134 130 127 132 134 134 134 133 132 130 128 132 133 136
258 259 277 279 279 280 278 285 300 304 299 296 296 295 296 300 301 302 302 303 305 310 311 310 311 314 315 318 319 319 317 319 322 322 318 316 316 319 322 323 321 323 328 330 333 331 333 341 28 44 40 33 16 15 13 15 12 40 111 130 144 146 146 145 151 153 146 133 129 130 129 126 122 126 132 138 138 136 137 134 133 135 136 138 136
247 260 274 283 285 284 288 297 306 300 300 298 294 292 294 294 300 305 307 304 309 312 313 313 318 319 319 319 321 321 320 320 318 317 319 319 317 316 317 319 322 323 327 331 338 338 342 340 15 39 37 30 20 16 18 11 10 20 20 92 156 166 167 161 158 140 135 132 133 133 134 138 143 139 139 142 142 141 142 146 142 136 135 141 146
258 270 272 279 285 290 295 297 297 297 295 295 294 299 299 301 299 303 304 306 310 312 313 316 318 320 322 322 323 323 322 321 318 319 318 319 319 319 321 323 324 326 332 336 338 348 351 345 10 27 26 20 17 12 12 14 17 17 22 23 34 44 59 78 116 131 134 132 136 135 135 132 134 143 143 139 137 136 136 136 137 142 143 145 142
251 258 273 281 285 292 291 293 290 289 293 289 291 293 300 302 304 305 304 306 311 311 314 314 319 324 327 326 326 325 325 326 326 325 324 323 323 325 326 329 330 333 338 340 343 348 353 357 13 20 20 17 20 20 19 16 17 11 10 19 30 55 62 78 99 105 94 116 128 134 136 136 133 133 134 130 125 131 133 140 144 142 139 140 138
248 266 274 279 280 281 282 285 287 291 288 288 293 298 296 298 301 301 306 311 311 311 313 318 322 323 325 327 328 327 325 325 325 327 328 330 329 329 333 338 341 340 339 338 348 354 359 5 8 14 18 20 21 19 15 16 16 18 16 14 13 37 66 68 60 73 82 99 107 123 128 129 129 131 134 136 136 139 140 140 135 130 133 131 132
256 263 274 274 278 279 280 284 287 287 288 293 296 295 294 296 295 296 298 305 311 314 315 316 317 321 325 326 328 330 329 329 329 333 335 334 335 339 341 342 342 340 340 345 350 355 1 8 14 20 25 29 28 26 23 19 22 21 26 30 51 63 62 66 63 72 87 92 98 104 109 118 126 130 131 131 134 135 132 131 132 132 128 128 129
256 257 258 266 269 269 272 275 275 279 282 289 289 292 292 293 294 296 300 305 307 308 311 313 317 322 325 327 332 332 334 336 339 336 336 337 339 339 342 346 350 352 355 356 2 5 8 12 16 17 19 25 30 31 30 24 25 30 30 49 63 68 71 67 66 73 81 91 103 114 117 120 120 126 129 131 133 131 130 134 133 131 133 136 138
261 255 263 260 263 268 274 271 273 273 279 280 280 286 290 290 290 293 299 303 305 308 309 310 311 317 325 330 328 327 328 330 332 334 335 338 340 341 343 349 353 353 355 358 2 0 358 360 360 5 22 18 19 24 29 33 36 46 59 63 65 68 61 56 56 63 77 90 102 113 125 130 135 133 134 131 130 128 134 131 133 133 137 139 140